Time,TemperatureF,DewpointF,PressureIn,WindDirection,WindDirectionDegrees,WindSpeedMPH,WindSpeedGustMPH,Humidity,HourlyPrecipIn,Conditions,Clouds,dailyrainin,SolarRadiationWatts/m^2,SoftwareType,DateUTC
2013-05-06 00:02:00,37.0,27.0,-100.00,NW,313,2.0,3.0,68,0.00,,,0.05,0.000000,,2013-05-06 06:02:00,
2013-05-06 00:12:00,37.0,27.0,-100.00,NW,313,2.0,3.0,68,0.00,,,0.05,0.000000,,2013-05-06 06:12:00,
2013-05-06 00:21:00,37.0,27.0,-100.00,NW,313,2.0,3.0,68,0.00,,,0.05,0.000000,,2013-05-06 06:21:00,
2013-05-06 00:42:00,35.0,24.0,-100.00,NNW,341,2.0,4.0,63,0.00,,,0.05,0.000000,,2013-05-06 06:42:00,
2013-05-06 00:52:00,35.0,24.0,-100.00,NNW,341,2.0,4.0,63,0.00,,,0.05,0.000000,,2013-05-06 06:52:00,
2013-05-06 01:01:00,35.0,24.0,-100.00,NNW,341,2.0,4.0,63,0.00,,,0.05,0.000000,,2013-05-06 07:01:00,
2013-05-06 01:11:00,35.0,24.0,-100.00,NNW,341,2.0,4.0,63,0.00,,,0.05,0.000000,,2013-05-06 07:11:00,
2013-05-06 01:22:00,35.0,24.0,-100.00,NNW,341,2.0,4.0,63,0.00,,,0.05,0.000000,,2013-05-06 07:22:00,
2013-05-06 01:42:00,33.0,24.0,-100.00,NNW,332,2.0,3.0,70,0.00,,,0.05,0.000000,,2013-05-06 07:42:00,
2013-05-06 01:52:00,33.0,24.0,-100.00,NNW,332,2.0,3.0,70,0.00,,,0.05,0.000000,,2013-05-06 07:52:00,
2013-05-06 02:02:00,33.0,24.0,-100.00,NNW,332,2.0,3.0,70,0.00,,,0.05,0.000000,,2013-05-06 08:02:00,
2013-05-06 02:12:00,33.0,24.0,-100.00,NNW,332,2.0,3.0,70,0.00,,,0.05,0.000000,,2013-05-06 08:12:00,
2013-05-06 02:22:00,33.0,24.0,-100.00,NNW,332,2.0,3.0,70,0.00,,,0.05,0.000000,,2013-05-06 08:22:00,
2013-05-06 02:42:00,31.0,23.0,-100.00,NNW,329,2.0,3.0,73,0.00,,,0.05,0.000000,,2013-05-06 08:42:00,
2013-05-06 02:52:00,31.0,23.0,-100.00,NNW,329,2.0,3.0,73,0.00,,,0.05,0.000000,,2013-05-06 08:52:00,
2013-05-06 03:01:00,31.0,23.0,-100.00,NNW,329,2.0,3.0,73,0.00,,,0.05,0.000000,,2013-05-06 09:01:00,
2013-05-06 03:11:00,31.0,23.0,-100.00,NNW,329,2.0,3.0,73,0.00,,,0.05,0.000000,,2013-05-06 09:11:00,
2013-05-06 03:22:00,31.0,23.0,-100.00,NNW,329,2.0,3.0,73,0.00,,,0.05,0.000000,,2013-05-06 09:22:00,
2013-05-06 03:43:00,31.0,23.0,-100.00,NNW,338,1.0,3.0,73,0.00,,,0.05,0.000000,,2013-05-06 09:43:00,
2013-05-06 03:53:00,31.0,23.0,-100.00,NNW,338,1.0,3.0,73,0.00,,,0.05,0.000000,,2013-05-06 09:53:00,
2013-05-06 04:02:00,31.0,23.0,-100.00,NNW,338,1.0,3.0,73,0.00,,,0.05,0.000000,,2013-05-06 10:02:00,
2013-05-06 04:12:00,31.0,23.0,-100.00,NNW,338,1.0,3.0,73,0.00,,,0.05,0.000000,,2013-05-06 10:12:00,
2013-05-06 04:22:00,31.0,23.0,-100.00,NNW,338,1.0,3.0,73,0.00,,,0.05,0.000000,,2013-05-06 10:22:00,
2013-05-06 04:42:00,31.0,23.0,-100.00,WNW,285,2.0,2.0,73,0.00,,,0.05,0.000000,,2013-05-06 10:42:00,
2013-05-06 04:52:00,31.0,23.0,-100.00,WNW,285,2.0,2.0,73,0.00,,,0.05,0.000000,,2013-05-06 10:52:00,
2013-05-06 05:02:00,31.0,23.0,-100.00,WNW,285,2.0,2.0,73,0.00,,,0.05,0.000000,,2013-05-06 11:02:00,
2013-05-06 05:12:00,31.0,23.0,-100.00,WNW,285,2.0,2.0,73,0.00,,,0.05,0.000000,,2013-05-06 11:12:00,
2013-05-06 05:22:00,31.0,23.0,-100.00,WNW,285,2.0,2.0,73,0.00,,,0.05,0.000000,,2013-05-06 11:22:00,
2013-05-06 05:42:00,30.0,23.0,-100.00,NW,312,2.0,2.0,74,0.00,,,0.05,0.000000,,2013-05-06 11:42:00,
2013-05-06 05:52:00,30.0,23.0,-100.00,NW,312,2.0,2.0,74,0.00,,,0.05,0.000000,,2013-05-06 11:52:00,
2013-05-06 06:01:00,30.0,23.0,-100.00,NW,312,2.0,2.0,74,0.00,,,0.05,0.000000,,2013-05-06 12:01:00,
2013-05-06 06:12:00,30.0,23.0,-100.00,NW,312,2.0,2.0,74,0.00,,,0.05,0.000000,,2013-05-06 12:12:00,
2013-05-06 06:21:00,30.0,23.0,-100.00,NW,312,2.0,2.0,74,0.00,,,0.05,0.000000,,2013-05-06 12:21:00,
2013-05-06 06:42:00,32.0,22.0,-100.00,NW,323,1.0,2.0,66,0.00,,,0.05,4.000000,,2013-05-06 12:42:00,
2013-05-06 06:52:00,32.0,22.0,-100.00,NW,323,1.0,2.0,66,0.00,,,0.05,4.000000,,2013-05-06 12:52:00,
2013-05-06 07:01:00,32.0,22.0,-100.00,NW,323,1.0,2.0,66,0.00,,,0.05,4.000000,,2013-05-06 13:01:00,
2013-05-06 07:11:00,32.0,22.0,-100.00,NW,323,1.0,2.0,66,0.00,,,0.05,4.000000,,2013-05-06 13:11:00,
2013-05-06 07:21:00,32.0,22.0,-100.00,NW,323,1.0,2.0,66,0.00,,,0.05,4.000000,,2013-05-06 13:21:00,
2013-05-06 07:42:00,35.0,24.0,-100.00,NNW,330,0.0,2.0,65,0.00,,,0.05,44.000000,,2013-05-06 13:42:00,
2013-05-06 07:52:00,35.0,24.0,-100.00,NNW,330,0.0,2.0,65,0.00,,,0.05,44.000000,,2013-05-06 13:52:00,
2013-05-06 08:01:00,35.0,24.0,-100.00,NNW,330,0.0,2.0,65,0.00,,,0.05,44.000000,,2013-05-06 14:01:00,
2013-05-06 08:11:00,35.0,24.0,-100.00,NNW,330,0.0,2.0,65,0.00,,,0.05,44.000000,,2013-05-06 14:11:00,
2013-05-06 08:21:00,35.0,24.0,-100.00,NNW,330,0.0,2.0,65,0.00,,,0.05,44.000000,,2013-05-06 14:21:00,
2013-05-06 08:42:00,39.0,23.0,-100.00,ESE,123,2.0,2.0,53,0.00,,,0.05,155.000000,,2013-05-06 14:42:00,
2013-05-06 08:52:00,39.0,23.0,-100.00,ESE,123,2.0,2.0,53,0.00,,,0.05,155.000000,,2013-05-06 14:52:00,
2013-05-06 09:01:00,39.0,23.0,-100.00,ESE,123,2.0,2.0,53,0.00,,,0.05,155.000000,,2013-05-06 15:01:00,
2013-05-06 09:11:00,39.0,23.0,-100.00,ESE,123,2.0,2.0,53,0.00,,,0.05,155.000000,,2013-05-06 15:11:00,
2013-05-06 09:21:00,39.0,23.0,-100.00,ESE,123,2.0,2.0,53,0.00,,,0.05,155.000000,,2013-05-06 15:21:00,
2013-05-06 09:23:00,43.0,26.0,-100.00,ESE,104,2.0,3.0,50,0.00,,,0.05,344.000000,,2013-05-06 15:23:00,
2013-05-06 09:43:00,43.0,26.0,-100.00,ESE,104,2.0,3.0,50,0.00,,,0.05,344.000000,,2013-05-06 15:43:00,
2013-05-06 09:53:00,43.0,26.0,-100.00,ESE,104,2.0,3.0,50,0.00,,,0.05,344.000000,,2013-05-06 15:53:00,
2013-05-06 10:03:00,43.0,26.0,-100.00,ESE,104,2.0,3.0,50,0.00,,,0.05,344.000000,,2013-05-06 16:03:00,
2013-05-06 10:13:00,43.0,26.0,-100.00,ESE,104,2.0,3.0,50,0.00,,,0.05,344.000000,,2013-05-06 16:13:00,
2013-05-06 10:23:00,44.0,27.0,-100.00,SE,128,3.0,4.0,50,0.00,,,0.00,459.000000,,2013-05-06 16:23:00,
2013-05-06 10:42:00,44.0,27.0,-100.00,SE,128,3.0,4.0,50,0.00,,,0.00,459.000000,,2013-05-06 16:42:00,
2013-05-06 10:52:00,44.0,27.0,-100.00,SE,128,3.0,4.0,50,0.00,,,0.00,459.000000,,2013-05-06 16:52:00,
2013-05-06 11:03:00,44.0,27.0,-100.00,SE,128,3.0,4.0,50,0.00,,,0.00,459.000000,,2013-05-06 17:03:00,
2013-05-06 11:12:00,44.0,27.0,-100.00,SE,128,3.0,4.0,50,0.00,,,0.00,459.000000,,2013-05-06 17:12:00,
2013-05-06 11:42:00,45.0,34.0,-100.00,SE,125,5.0,7.0,66,0.00,,,0.00,628.000000,,2013-05-06 17:42:00,
2013-05-06 11:52:00,45.0,34.0,-100.00,SE,125,5.0,7.0,66,0.00,,,0.00,628.000000,,2013-05-06 17:52:00,
2013-05-06 12:01:00,45.0,34.0,-100.00,SE,125,5.0,7.0,66,0.00,,,0.00,628.000000,,2013-05-06 18:01:00,
2013-05-06 12:12:00,45.0,34.0,-100.00,SE,125,5.0,7.0,66,0.00,,,0.00,628.000000,,2013-05-06 18:12:00,
2013-05-06 12:21:00,45.0,34.0,-100.00,SE,125,5.0,7.0,66,0.00,,,0.00,628.000000,,2013-05-06 18:21:00,
2013-05-06 12:43:00,47.0,35.0,-100.00,SE,129,6.0,11.0,64,0.00,,,0.00,953.000000,,2013-05-06 18:43:00,
2013-05-06 12:52:00,47.0,35.0,-100.00,SE,129,6.0,11.0,64,0.00,,,0.00,953.000000,,2013-05-06 18:52:00,
2013-05-06 13:01:00,47.0,35.0,-100.00,SE,129,6.0,11.0,64,0.00,,,0.00,953.000000,,2013-05-06 19:01:00,
2013-05-06 13:11:00,47.0,35.0,-100.00,SE,129,6.0,11.0,64,0.00,,,0.00,953.000000,,2013-05-06 19:11:00,
2013-05-06 13:22:00,47.0,35.0,-100.00,SE,129,6.0,11.0,64,0.00,,,0.00,953.000000,,2013-05-06 19:22:00,
2013-05-06 13:42:00,46.0,34.0,-100.00,ESE,121,4.0,9.0,62,0.00,,,0.00,670.000000,,2013-05-06 19:42:00,
2013-05-06 13:52:00,46.0,34.0,-100.00,ESE,121,4.0,9.0,62,0.00,,,0.00,670.000000,,2013-05-06 19:52:00,
2013-05-06 14:02:00,46.0,34.0,-100.00,ESE,121,4.0,9.0,62,0.00,,,0.00,670.000000,,2013-05-06 20:02:00,
2013-05-06 14:11:00,46.0,34.0,-100.00,ESE,121,4.0,9.0,62,0.00,,,0.00,670.000000,,2013-05-06 20:11:00,
2013-05-06 14:21:00,46.0,34.0,-100.00,ESE,121,4.0,9.0,62,0.00,,,0.00,670.000000,,2013-05-06 20:21:00,
2013-05-06 14:42:00,50.0,32.0,-100.00,East,101,3.0,7.0,50,0.00,,,0.00,983.000000,,2013-05-06 20:42:00,
2013-05-06 14:52:00,50.0,32.0,-100.00,East,101,3.0,7.0,50,0.00,,,0.00,983.000000,,2013-05-06 20:52:00,
2013-05-06 15:01:00,50.0,32.0,-100.00,East,101,3.0,7.0,50,0.00,,,0.00,983.000000,,2013-05-06 21:01:00,
2013-05-06 15:11:00,50.0,32.0,-100.00,East,101,3.0,7.0,50,0.00,,,0.00,983.000000,,2013-05-06 21:11:00,
2013-05-06 15:21:00,50.0,32.0,-100.00,East,101,3.0,7.0,50,0.00,,,0.00,983.000000,,2013-05-06 21:21:00,
2013-05-06 15:43:00,47.0,34.0,-100.00,ESE,116,3.0,8.0,61,0.00,,,0.00,480.000000,,2013-05-06 21:43:00,
2013-05-06 15:53:00,47.0,34.0,-100.00,ESE,116,3.0,8.0,61,0.00,,,0.00,480.000000,,2013-05-06 21:53:00,
2013-05-06 16:03:00,47.0,34.0,-100.00,ESE,116,3.0,8.0,61,0.00,,,0.00,480.000000,,2013-05-06 22:03:00,
2013-05-06 16:12:00,47.0,34.0,-100.00,ESE,116,3.0,8.0,61,0.00,,,0.00,480.000000,,2013-05-06 22:12:00,
2013-05-06 16:22:00,47.0,34.0,-100.00,ESE,116,3.0,8.0,61,0.00,,,0.00,480.000000,,2013-05-06 22:22:00,
2013-05-06 16:45:00,50.0,34.0,-100.00,West,259,2.0,6.0,54,0.00,,,0.00,370.000000,,2013-05-06 22:45:00,
2013-05-06 16:52:00,50.0,34.0,-100.00,West,259,2.0,6.0,54,0.00,,,0.00,370.000000,,2013-05-06 22:52:00,
2013-05-06 17:03:00,50.0,34.0,-100.00,West,259,2.0,6.0,54,0.00,,,0.00,370.000000,,2013-05-06 23:03:00,
2013-05-06 17:12:00,50.0,34.0,-100.00,West,259,2.0,6.0,54,0.00,,,0.00,370.000000,,2013-05-06 23:12:00,
2013-05-06 17:22:00,50.0,34.0,-100.00,West,259,2.0,6.0,54,0.00,,,0.00,370.000000,,2013-05-06 23:22:00,
2013-05-06 17:42:00,49.0,32.0,-100.00,South,172,2.0,7.0,52,0.00,,,0.00,244.000000,,2013-05-06 23:42:00,
2013-05-06 17:52:00,49.0,32.0,-100.00,South,172,2.0,7.0,52,0.00,,,0.00,244.000000,,2013-05-06 23:52:00,
2013-05-06 18:01:00,49.0,32.0,-100.00,South,172,2.0,7.0,52,0.00,,,0.00,244.000000,,2013-05-07 00:01:00,
2013-05-06 18:11:00,49.0,32.0,-100.00,South,172,2.0,7.0,52,0.00,,,0.00,244.000000,,2013-05-07 00:11:00,
2013-05-06 18:21:00,49.0,32.0,-100.00,South,172,2.0,7.0,52,0.00,,,0.00,244.000000,,2013-05-07 00:21:00,
2013-05-06 18:42:00,43.0,34.0,-100.00,East,86,2.0,8.0,69,0.00,,,0.00,67.000000,,2013-05-07 00:42:00,
2013-05-06 18:52:00,43.0,34.0,-100.00,East,86,2.0,8.0,69,0.00,,,0.00,67.000000,,2013-05-07 00:52:00,
2013-05-06 19:01:00,43.0,34.0,-100.00,East,86,2.0,8.0,69,0.00,,,0.00,67.000000,,2013-05-07 01:01:00,
2013-05-06 19:11:00,43.0,34.0,-100.00,East,86,2.0,8.0,69,0.00,,,0.00,67.000000,,2013-05-07 01:11:00,
2013-05-06 19:21:00,43.0,34.0,-100.00,East,86,2.0,8.0,69,0.00,,,0.00,67.000000,,2013-05-07 01:21:00,
2013-05-06 19:42:00,38.0,35.0,-100.00,NW,313,2.0,6.0,89,0.01,,,0.01,15.000000,,2013-05-07 01:42:00,
2013-05-06 19:53:00,38.0,35.0,-100.00,NW,313,2.0,6.0,89,0.01,,,0.01,15.000000,,2013-05-07 01:53:00,
2013-05-06 20:02:00,38.0,35.0,-100.00,NW,313,2.0,6.0,89,0.01,,,0.01,15.000000,,2013-05-07 02:02:00,
2013-05-06 20:11:00,38.0,35.0,-100.00,NW,313,2.0,6.0,89,0.01,,,0.01,15.000000,,2013-05-07 02:11:00,
2013-05-06 20:21:00,38.0,35.0,-100.00,NW,313,2.0,6.0,89,0.01,,,0.01,15.000000,,2013-05-07 02:21:00,
2013-05-06 20:42:00,38.0,36.0,-100.00,North,357,1.0,3.0,93,0.04,,,0.05,4.000000,,2013-05-07 02:42:00,
2013-05-06 20:52:00,38.0,36.0,-100.00,North,357,1.0,3.0,93,0.04,,,0.05,4.000000,,2013-05-07 02:52:00,
2013-05-06 21:01:00,38.0,36.0,-100.00,North,357,1.0,3.0,93,0.04,,,0.05,4.000000,,2013-05-07 03:01:00,
2013-05-06 21:11:00,38.0,36.0,-100.00,North,357,1.0,3.0,93,0.04,,,0.05,4.000000,,2013-05-07 03:11:00,
2013-05-06 21:21:00,38.0,36.0,-100.00,North,357,1.0,3.0,93,0.04,,,0.05,4.000000,,2013-05-07 03:21:00,
2013-05-06 21:23:00,35.0,33.0,-100.00,ESE,116,1.0,2.0,91,0.10,,,0.15,0.000000,,2013-05-07 03:23:00,
2013-05-06 21:43:00,35.0,33.0,-100.00,ESE,116,1.0,2.0,91,0.10,,,0.15,0.000000,,2013-05-07 03:43:00,
2013-05-06 21:53:00,35.0,33.0,-100.00,ESE,116,1.0,2.0,91,0.10,,,0.15,0.000000,,2013-05-07 03:53:00,
2013-05-06 22:03:00,35.0,33.0,-100.00,ESE,116,1.0,2.0,91,0.10,,,0.15,0.000000,,2013-05-07 04:03:00,
2013-05-06 22:12:00,35.0,33.0,-100.00,ESE,116,1.0,2.0,91,0.10,,,0.15,0.000000,,2013-05-07 04:12:00,
2013-05-06 22:42:00,33.0,32.0,-100.00,SSW,210,1.0,2.0,97,0.02,,,0.17,0.000000,,2013-05-07 04:42:00,
2013-05-06 22:53:00,33.0,32.0,-100.00,SSW,210,1.0,2.0,97,0.02,,,0.17,0.000000,,2013-05-07 04:53:00,
2013-05-06 23:02:00,33.0,32.0,-100.00,SSW,210,1.0,2.0,97,0.02,,,0.17,0.000000,,2013-05-07 05:02:00,
2013-05-06 23:12:00,33.0,32.0,-100.00,SSW,210,1.0,2.0,97,0.02,,,0.17,0.000000,,2013-05-07 05:12:00,
2013-05-06 23:22:00,33.0,32.0,-100.00,SSW,210,1.0,2.0,97,0.02,,,0.17,0.000000,,2013-05-07 05:22:00,
2013-05-06 23:42:00,33.0,32.0,-100.00,NNE,12,1.0,2.0,98,0.00,,,0.17,0.000000,,2013-05-07 05:42:00,
2013-05-06 23:52:00,33.0,32.0,-100.00,NNE,12,1.0,2.0,98,0.00,,,0.17,0.000000,,2013-05-07 05:52:00,